Location: Amsterdam
(30.7274°N, 84.4357°W)
Time: 01:01:31
(UTC+00:00)

Explorer 11/Cluster Stage 4 - Pass Details

Date: 16 February 2026
Orbit: 463 x 1176 km, 28.8° (Epoch: 9 March)

Event Time Altitude Azimuth Distance (km) Brightness Sun altitude
Rises 20:41:30 0° 262° (W) 2,539 10.0 30.9°
Reaches altitude 10° 20:43:44 10° 259° (WSW) 1,621 9.3 30.5°
Maximum altitude 20:47:20 63° 177° (S) 513 6.4 29.9°
Drops below altitude 10° 20:50:55 10° 96° (E) 1,624 7.9 29.3°
Sets 20:53:10 0° 93° (E) 2,544 8.8 28.9°
